Time,TemperatureF,DewpointF,PressureIn,WindDirection,WindDirectionDegrees,WindSpeedMPH,WindSpeedGustMPH,Humidity,HourlyPrecipIn,Conditions,Clouds,dailyrainin,SoftwareType,DateUTC
2013-01-03 00:22:00,42.0,32.0,30.04,ESE,110,1.0,-999.0,68,0.00,,,-99.99,,2013-01-03 08:22:00,
2013-01-03 00:32:00,42.0,32.0,30.04,ESE,110,1.0,-999.0,68,0.00,,,-99.99,,2013-01-03 08:32:00,
2013-01-03 00:42:00,42.0,32.0,30.04,ESE,110,1.0,-999.0,68,0.00,,,-99.99,,2013-01-03 08:42:00,
2013-01-03 00:52:00,42.0,32.0,30.04,ESE,110,1.0,-999.0,68,0.00,,,-99.99,,2013-01-03 08:52:00,
2013-01-03 01:22:00,42.0,31.0,30.04,North,0,0.0,-999.0,65,0.00,,,-99.99,,2013-01-03 09:22:00,
2013-01-03 01:33:00,42.0,31.0,30.04,North,0,0.0,-999.0,65,0.00,,,-99.99,,2013-01-03 09:33:00,
2013-01-03 01:42:00,42.0,31.0,30.04,North,0,0.0,-999.0,65,0.00,,,-99.99,,2013-01-03 09:42:00,
2013-01-03 01:52:00,42.0,31.0,30.04,North,0,0.0,-999.0,65,0.00,,,-99.99,,2013-01-03 09:52:00,
2013-01-03 02:22:00,40.0,30.0,30.04,North,0,0.0,-999.0,67,0.00,,,-99.99,,2013-01-03 10:22:00,
2013-01-03 02:32:00,40.0,30.0,30.04,North,0,0.0,-999.0,67,0.00,,,-99.99,,2013-01-03 10:32:00,
2013-01-03 02:42:00,40.0,30.0,30.04,North,0,0.0,-999.0,67,0.00,,,-99.99,,2013-01-03 10:42:00,
2013-01-03 02:52:00,40.0,30.0,30.04,North,0,0.0,-999.0,67,0.00,,,-99.99,,2013-01-03 10:52:00,
2013-01-03 03:22:00,39.0,30.0,30.03,ESE,120,2.0,-999.0,70,0.00,,,-99.99,,2013-01-03 11:22:00,
2013-01-03 03:33:00,39.0,30.0,30.03,ESE,120,2.0,-999.0,70,0.00,,,-99.99,,2013-01-03 11:33:00,
2013-01-03 03:42:00,39.0,30.0,30.03,ESE,120,2.0,-999.0,70,0.00,,,-99.99,,2013-01-03 11:42:00,
2013-01-03 03:52:00,39.0,30.0,30.03,ESE,120,2.0,-999.0,70,0.00,,,-99.99,,2013-01-03 11:52:00,
2013-01-03 04:22:00,38.0,29.0,30.02,North,0,0.0,-999.0,69,0.00,,,-99.99,,2013-01-03 12:22:00,
2013-01-03 04:32:00,38.0,29.0,30.02,North,0,0.0,-999.0,69,0.00,,,-99.99,,2013-01-03 12:32:00,
2013-01-03 04:42:00,38.0,29.0,30.02,North,0,0.0,-999.0,69,0.00,,,-99.99,,2013-01-03 12:42:00,
2013-01-03 04:52:00,38.0,29.0,30.02,North,0,0.0,-999.0,69,0.00,,,-99.99,,2013-01-03 12:52:00,
2013-01-03 05:22:00,41.0,28.0,30.02,North,0,0.0,-999.0,59,0.00,,,-99.99,,2013-01-03 13:22:00,
2013-01-03 05:32:00,41.0,28.0,30.02,North,0,0.0,-999.0,59,0.00,,,-99.99,,2013-01-03 13:32:00,
2013-01-03 05:42:00,41.0,28.0,30.02,North,0,0.0,-999.0,59,0.00,,,-99.99,,2013-01-03 13:42:00,
2013-01-03 05:52:00,41.0,28.0,30.02,North,0,0.0,-999.0,59,0.00,,,-99.99,,2013-01-03 13:52:00,
2013-01-03 06:22:00,39.0,29.0,30.04,East,90,6.0,-999.0,66,0.00,,,-99.99,,2013-01-03 14:22:00,
2013-01-03 06:32:00,39.0,29.0,30.04,East,90,6.0,-999.0,66,0.00,,,-99.99,,2013-01-03 14:32:00,
2013-01-03 06:42:00,39.0,29.0,30.04,East,90,6.0,-999.0,66,0.00,,,-99.99,,2013-01-03 14:42:00,
2013-01-03 06:53:00,39.0,29.0,30.04,East,90,6.0,-999.0,66,0.00,,,-99.99,,2013-01-03 14:53:00,
2013-01-03 07:22:00,44.0,28.0,30.06,SSE,150,3.0,-999.0,53,0.00,,,-99.99,,2013-01-03 15:22:00,
2013-01-03 07:33:00,44.0,28.0,30.06,SSE,150,3.0,-999.0,53,0.00,,,-99.99,,2013-01-03 15:33:00,
2013-01-03 07:42:00,44.0,28.0,30.06,SSE,150,3.0,-999.0,53,0.00,,,-99.99,,2013-01-03 15:42:00,
2013-01-03 07:53:00,44.0,28.0,30.06,SSE,150,3.0,-999.0,53,0.00,,,-99.99,,2013-01-03 15:53:00,
2013-01-03 08:22:00,44.0,31.0,30.08,North,0,0.0,-999.0,59,0.00,,,-99.99,,2013-01-03 16:22:00,
2013-01-03 08:33:00,44.0,31.0,30.08,North,0,0.0,-999.0,59,0.00,,,-99.99,,2013-01-03 16:33:00,
2013-01-03 08:43:00,44.0,31.0,30.08,North,0,0.0,-999.0,59,0.00,,,-99.99,,2013-01-03 16:43:00,
2013-01-03 08:52:00,44.0,31.0,30.08,North,0,0.0,-999.0,59,0.00,,,-99.99,,2013-01-03 16:52:00,
2013-01-03 09:22:00,53.0,44.0,30.10,WSW,250,3.0,-999.0,72,0.00,,,-99.99,,2013-01-03 17:22:00,
2013-01-03 09:33:00,53.0,44.0,30.10,WSW,250,3.0,-999.0,72,0.00,,,-99.99,,2013-01-03 17:33:00,
2013-01-03 09:42:00,53.0,44.0,30.10,WSW,250,3.0,-999.0,72,0.00,,,-99.99,,2013-01-03 17:42:00,
2013-01-03 09:52:00,53.0,44.0,30.10,WSW,250,3.0,-999.0,72,0.00,,,-99.99,,2013-01-03 17:52:00,
2013-01-03 10:22:00,55.0,45.0,30.12,North,0,0.0,-999.0,70,0.00,,,-99.99,,2013-01-03 18:22:00,
2013-01-03 10:33:00,55.0,45.0,30.12,North,0,0.0,-999.0,70,0.00,,,-99.99,,2013-01-03 18:33:00,
2013-01-03 10:42:00,55.0,45.0,30.12,North,0,0.0,-999.0,70,0.00,,,-99.99,,2013-01-03 18:42:00,
2013-01-03 10:53:00,55.0,45.0,30.12,North,0,0.0,-999.0,70,0.00,,,-99.99,,2013-01-03 18:53:00,
2013-01-03 10:55:00,62.0,44.0,30.11,SSE,150,2.0,-999.0,51,0.00,,,-99.99,,2013-01-03 18:55:00,
2013-01-03 11:54:00,62.0,44.0,30.11,SSE,150,2.0,-999.0,51,0.00,,,-99.99,,2013-01-03 19:54:00,
2013-01-03 12:22:00,64.0,40.0,30.08,West,260,2.0,-999.0,42,0.00,,,-99.99,,2013-01-03 20:22:00,
2013-01-03 12:33:00,64.0,40.0,30.08,West,260,2.0,-999.0,42,0.00,,,-99.99,,2013-01-03 20:33:00,
2013-01-03 12:42:00,64.0,40.0,30.08,West,260,2.0,-999.0,42,0.00,,,-99.99,,2013-01-03 20:42:00,
2013-01-03 12:53:00,64.0,40.0,30.08,West,260,2.0,-999.0,42,0.00,,,-99.99,,2013-01-03 20:53:00,
2013-01-03 13:22:00,57.0,49.0,30.06,West,280,9.0,-999.0,75,0.00,,,-99.99,,2013-01-03 21:22:00,
2013-01-03 13:35:00,57.0,49.0,30.06,West,280,9.0,-999.0,75,0.00,,,-99.99,,2013-01-03 21:35:00,
2013-01-03 13:47:00,57.0,49.0,30.06,West,280,9.0,-999.0,75,0.00,,,-99.99,,2013-01-03 21:47:00,
2013-01-03 13:52:00,57.0,49.0,30.06,West,280,9.0,-999.0,75,0.00,,,-99.99,,2013-01-03 21:52:00,
2013-01-03 14:22:00,57.0,50.0,30.05,WNW,290,8.0,-999.0,78,0.00,,,-99.99,,2013-01-03 22:22:00,
2013-01-03 14:32:00,57.0,50.0,30.05,WNW,290,8.0,-999.0,78,0.00,,,-99.99,,2013-01-03 22:32:00,
2013-01-03 14:42:00,57.0,50.0,30.05,WNW,290,8.0,-999.0,78,0.00,,,-99.99,,2013-01-03 22:42:00,
2013-01-03 14:52:00,57.0,50.0,30.05,WNW,290,8.0,-999.0,78,0.00,,,-99.99,,2013-01-03 22:52:00,
2013-01-03 15:22:00,61.0,41.0,30.07,West,260,5.0,-999.0,48,0.00,,,-99.99,,2013-01-03 23:22:00,
2013-01-03 15:32:00,61.0,41.0,30.07,West,260,5.0,-999.0,48,0.00,,,-99.99,,2013-01-03 23:32:00,
2013-01-03 15:42:00,61.0,41.0,30.07,West,260,5.0,-999.0,48,0.00,,,-99.99,,2013-01-03 23:42:00,
2013-01-03 15:52:00,61.0,41.0,30.07,West,260,5.0,-999.0,48,0.00,,,-99.99,,2013-01-03 23:52:00,
2013-01-03 16:22:00,61.0,30.0,30.08,West,260,3.0,-999.0,31,0.00,,,-99.99,,2013-01-04 00:22:00,
2013-01-03 16:32:00,61.0,30.0,30.08,West,260,3.0,-999.0,31,0.00,,,-99.99,,2013-01-04 00:32:00,
2013-01-03 17:22:00,57.0,44.0,30.09,WNW,300,3.0,-999.0,61,0.00,,,-99.99,,2013-01-04 01:22:00,
2013-01-03 17:32:00,57.0,44.0,30.09,WNW,300,3.0,-999.0,61,0.00,,,-99.99,,2013-01-04 01:32:00,
2013-01-03 17:42:00,57.0,44.0,30.09,WNW,300,3.0,-999.0,61,0.00,,,-99.99,,2013-01-04 01:42:00,
2013-01-03 17:52:00,57.0,44.0,30.09,WNW,300,3.0,-999.0,61,0.00,,,-99.99,,2013-01-04 01:52:00,
2013-01-03 18:22:00,56.0,34.0,30.10,North,0,0.0,-999.0,43,0.00,,,-99.99,,2013-01-04 02:22:00,
2013-01-03 18:32:00,56.0,34.0,30.10,North,0,0.0,-999.0,43,0.00,,,-99.99,,2013-01-04 02:32:00,
2013-01-03 18:42:00,56.0,34.0,30.10,North,0,0.0,-999.0,43,0.00,,,-99.99,,2013-01-04 02:42:00,
2013-01-03 18:52:00,56.0,34.0,30.10,North,0,0.0,-999.0,43,0.00,,,-99.99,,2013-01-04 02:52:00,
2013-01-03 19:22:00,51.0,34.0,30.11,East,90,1.0,-999.0,52,0.00,,,-99.99,,2013-01-04 03:22:00,
2013-01-03 19:32:00,51.0,34.0,30.11,East,90,1.0,-999.0,52,0.00,,,-99.99,,2013-01-04 03:32:00,
2013-01-03 19:42:00,51.0,34.0,30.11,East,90,1.0,-999.0,52,0.00,,,-99.99,,2013-01-04 03:42:00,
2013-01-03 19:52:00,51.0,34.0,30.11,East,90,1.0,-999.0,52,0.00,,,-99.99,,2013-01-04 03:52:00,
2013-01-03 20:22:00,49.0,33.0,30.12,North,0,0.0,-999.0,53,0.00,,,-99.99,,2013-01-04 04:22:00,
2013-01-03 20:32:00,49.0,33.0,30.12,North,0,0.0,-999.0,53,0.00,,,-99.99,,2013-01-04 04:32:00,
2013-01-03 20:42:00,49.0,33.0,30.12,North,0,0.0,-999.0,53,0.00,,,-99.99,,2013-01-04 04:42:00,
2013-01-03 20:52:00,49.0,33.0,30.12,North,0,0.0,-999.0,53,0.00,,,-99.99,,2013-01-04 04:52:00,
2013-01-03 21:22:00,47.0,34.0,30.14,SE,130,2.0,-999.0,61,0.00,,,-99.99,,2013-01-04 05:22:00,
2013-01-03 21:33:00,47.0,34.0,30.14,SE,130,2.0,-999.0,61,0.00,,,-99.99,,2013-01-04 05:33:00,
2013-01-03 21:42:00,47.0,34.0,30.14,SE,130,2.0,-999.0,61,0.00,,,-99.99,,2013-01-04 05:42:00,
2013-01-03 21:52:00,47.0,34.0,30.14,SE,130,2.0,-999.0,61,0.00,,,-99.99,,2013-01-04 05:52:00,
2013-01-03 22:22:00,45.0,34.0,30.14,East,100,6.0,-999.0,65,0.00,,,-99.99,,2013-01-04 06:22:00,
2013-01-03 22:32:00,45.0,34.0,30.14,East,100,6.0,-999.0,65,0.00,,,-99.99,,2013-01-04 06:32:00,
2013-01-03 22:42:00,45.0,34.0,30.14,East,100,6.0,-999.0,65,0.00,,,-99.99,,2013-01-04 06:42:00,
2013-01-03 22:52:00,45.0,34.0,30.14,East,100,6.0,-999.0,65,0.00,,,-99.99,,2013-01-04 06:52:00,
2013-01-03 23:22:00,42.0,34.0,30.15,ESE,110,4.0,-999.0,72,0.00,,,-99.99,,2013-01-04 07:22:00,
2013-01-03 23:32:00,42.0,34.0,30.15,ESE,110,4.0,-999.0,72,0.00,,,-99.99,,2013-01-04 07:32:00,
2013-01-03 23:42:00,42.0,34.0,30.15,ESE,110,4.0,-999.0,72,0.00,,,-99.99,,2013-01-04 07:42:00,
2013-01-03 23:52:00,42.0,34.0,30.15,ESE,110,4.0,-999.0,72,0.00,,,-99.99,,2013-01-04 07:52:00,